Jefferson, NC

1:30 PM EST on December 14, 2019 (GMT -0500)
Ashe County

Weather History for KGEV - October, 2019

Change the Weather History Date:

Wednesday, October 30, 2019

  Actual Average Record
Temperature  
Mean Temperature 56 °F -  
Max Temperature 58 °F 60 °F 78 °F (2004)
Min Temperature 53 °F 33 °F 18 °F (1969)
Degree Days  
Heating Degree Days 10    
Growing Degree Days 6 (Base 50)    
Moisture  
Dew Point 55 °F    
Average Humidity 100    
Maximum Humidity 100    
Minimum Humidity 100    
Precipitation  
Precipitation 0.41 in - - ()
Sea Level Pressure  
Sea Level Pressure 30.20 in    
Wind  
Wind Speed 2 mph ()    
Max Wind Speed 6 mph    
Max Gust Speed -    
Visibility 0.9 miles    
Events Fog , Rain    
Averages and records for this station are not official NWS values.
T = Trace of Precipitation, MM = Missing Value Source: Averaged Metar Reports

Daily Weather History Graph

Daily Weather History Graph

Search for Another Location

Airport or City:

Astronomy

Oct. 30, 2019 Rise Set
Actual Time 7:46 AM EDT 6:31 PM EDT
Civil Twilight 7:20 AM EDT 6:58 PM EDT
Nautical Twilight 6:49 AM EDT 7:28 PM EDT
Astronomical Twilight 6:19 AM EDT 7:58 PM EDT
Moon 10:24 AM EDT (10/30) 8:42 PM EDT (10/30)
Length of Visible Light 11h 37m
Length of Day
10h 44m
Waxing Crescent, 8% of the Moon is Illuminated
Oct 30
Waxing Crescent
Nov 4
First Quarter
Nov 12
Full
Nov 19
Last Quarter
Nov 26
New

Hourly Weather History & Observations

Time (EDT) Temp. Dew Point Humidity Pressure Visibility Wind Dir Wind Speed Gust Speed Precip Events Conditions
12:15 AM 53.6 °F 53.6 °F 100% 30.27 in 1.8 mi Calm Calm - N/A   Overcast
12:35 AM 54.0 °F 54.0 °F 100% 30.27 in 3.0 mi Calm Calm - N/A   Overcast
12:55 AM 54.1 °F 54.1 °F 100% 30.27 in 2.5 mi Calm Calm - N/A   Overcast
1:15 AM 54.1 °F 54.1 °F 100% 30.26 in 2.0 mi Calm Calm - N/A   Overcast
1:35 AM 54.5 °F 54.5 °F 100% 30.26 in 1.8 mi Calm Calm - N/A   Overcast
1:55 AM 54.1 °F 54.1 °F 100% 30.25 in 1.8 mi Calm Calm - N/A   Overcast
2:15 AM 54.1 °F 54.1 °F 100% 30.25 in 2.0 mi SE 3.5 mph - N/A   Overcast
2:35 AM 54.1 °F 54.1 °F 100% 30.25 in 2.0 mi Calm Calm - N/A   Overcast
2:55 AM 54.1 °F 54.1 °F 100% 30.24 in 1.0 mi Calm Calm - N/A   Overcast
3:15 AM 54.1 °F 54.1 °F 100% 30.24 in 1.5 mi SSE 3.5 mph - N/A   Overcast
3:35 AM 54.1 °F 54.1 °F 100% 30.24 in 0.2 mi SSE 3.5 mph - N/A Fog Fog
3:55 AM 54.3 °F 54.3 °F 100% 30.24 in 0.2 mi South 3.5 mph - N/A Fog Fog
4:15 AM 54.5 °F 54.5 °F 100% 30.24 in 0.2 mi SSE 4.6 mph - N/A Fog Fog
4:35 AM 54.5 °F 54.5 °F 100% 30.24 in 0.2 mi SSE 3.5 mph - N/A Fog Fog
4:55 AM 54.1 °F 54.1 °F 100% 30.23 in 0.2 mi SSE 4.6 mph - N/A Fog Fog
5:15 AM 54.1 °F 54.1 °F 100% 30.24 in 0.2 mi SSE 3.5 mph - N/A Fog Fog
5:35 AM 54.1 °F 54.1 °F 100% 30.24 in 0.5 mi SSE 3.5 mph - N/A Fog Fog
5:55 AM 54.1 °F 54.1 °F 100% 30.24 in 0.5 mi Calm Calm - N/A Fog Fog
6:15 AM 54.1 °F 54.1 °F 100% 30.24 in 0.5 mi SSE 3.5 mph - N/A Fog Fog
6:35 AM 54.5 °F 54.5 °F 100% 30.25 in 0.2 mi Calm Calm - N/A Fog Fog
6:55 AM 54.5 °F 54.5 °F 100% 30.25 in 0.5 mi Calm Calm - N/A Fog Fog
7:15 AM 54.1 °F 54.1 °F 100% 30.25 in 0.5 mi Calm Calm - N/A Fog Fog
7:35 AM 54.1 °F 54.1 °F 100% 30.25 in 0.5 mi Calm Calm - N/A Fog Fog
7:55 AM 54.1 °F 54.1 °F 100% 30.26 in 0.2 mi Calm Calm - N/A Fog Fog
8:15 AM 54.1 °F 54.1 °F 100% 30.26 in 0.5 mi Calm Calm - N/A Fog Fog
8:35 AM 54.1 °F 54.1 °F 100% 30.26 in 0.2 mi Calm Calm - 0.01 in Rain Light Rain
8:55 AM 54.0 °F 54.0 °F 100% 30.27 in 0.2 mi Calm Calm - 0.01 in Rain Light Rain
9:15 AM 54.1 °F 54.1 °F 100% 30.27 in 0.2 mi Calm Calm - N/A Fog Fog
9:35 AM 54.1 °F 54.1 °F 100% 30.27 in 0.2 mi Calm Calm - N/A Fog Fog
9:55 AM 54.7 °F 54.7 °F 100% 30.26 in 0.2 mi Calm Calm - N/A Rain Rain
10:15 AM 54.9 °F 54.9 °F 100% 30.26 in 0.2 mi Calm Calm - 0.01 in   Drizzle
10:35 AM 55.0 °F 55.0 °F 100% 30.26 in 0.2 mi Calm Calm - 0.01 in   Light Drizzle
10:55 AM 55.4 °F 55.4 °F 100% 30.25 in 0.2 mi Calm Calm - 0.01 in Rain Light Rain
11:15 AM 55.6 °F 55.6 °F 100% 30.25 in 0.2 mi SSE 3.5 mph - N/A Rain Light Rain
11:35 AM 55.6 °F 55.6 °F 100% 30.25 in 0.2 mi SE 3.5 mph - N/A Rain Rain
11:55 AM 55.6 °F 55.6 °F 100% 30.25 in 0.2 mi SSE 3.5 mph - 0.01 in Rain Rain
12:15 PM 55.6 °F 55.6 °F 100% 30.24 in 0.5 mi SSE 3.5 mph - N/A Rain Light Rain
12:35 PM 55.8 °F 55.8 °F 100% 30.24 in 1.5 mi SSE 4.6 mph - 0.01 in Rain Light Rain
12:55 PM 55.8 °F 55.8 °F 100% 30.22 in 4.0 mi Calm Calm - 0.02 in   Drizzle
1:15 PM 55.6 °F 55.6 °F 100% 30.21 in 3.0 mi SSE 4.6 mph - 0.01 in Rain Rain
1:35 PM 55.8 °F 55.8 °F 100% 30.20 in 1.0 mi Calm Calm - 0.05 in Rain Rain
1:55 PM 55.9 °F 55.9 °F 100% 30.20 in 1.0 mi SSE 4.6 mph - 0.06 in Rain Rain
2:15 PM 55.9 °F 55.9 °F 100% 30.19 in 0.5 mi SSE 4.6 mph - 0.01 in Rain Rain
2:35 PM 55.6 °F 55.6 °F 100% 30.17 in 3.0 mi SSE 3.5 mph - 0.04 in Rain Rain
2:55 PM 55.9 °F 55.9 °F 100% 30.17 in 3.0 mi Calm Calm - 0.06 in Rain Rain
3:15 PM 55.8 °F 55.8 °F 100% 30.17 in 1.8 mi Calm Calm - 0.01 in Rain Rain
3:35 PM 56.1 °F 56.1 °F 100% 30.16 in 0.5 mi SSE 3.5 mph - 0.03 in Rain Rain
3:55 PM 56.1 °F 56.1 °F 100% 30.16 in 0.2 mi Calm Calm - 0.05 in Rain Heavy Rain
4:55 PM 56.3 °F 56.3 °F 100% 30.14 in 0.2 mi SE 3.5 mph - 0.06 in Rain Rain
5:15 PM 56.3 °F 56.3 °F 100% 30.13 in 0.2 mi SE 3.5 mph - 0.01 in Rain Light Rain
5:35 PM 55.9 °F 55.9 °F 100% 30.13 in 0.2 mi Calm Calm - 0.03 in Rain Light Rain
5:55 PM 55.6 °F 55.6 °F 100% 30.13 in 0.2 mi SE 5.8 mph - 0.03 in Rain Light Rain
6:15 PM 55.6 °F 55.6 °F 100% 30.12 in 0.2 mi SE 4.6 mph - 0.02 in Rain Light Rain
6:35 PM 55.4 °F 55.4 °F 100% 30.10 in 0.5 mi SE 4.6 mph - 0.04 in Rain Rain
6:55 PM 55.4 °F 55.4 °F 100% 30.11 in 0.5 mi SSE 4.6 mph - 0.06 in Rain Rain
7:15 PM 55.4 °F 55.4 °F 100% 30.11 in 1.0 mi South 4.6 mph - 0.01 in Rain Light Rain
7:35 PM 55.4 °F 55.4 °F 100% 30.11 in 0.8 mi SE 4.6 mph - 0.01 in   Drizzle
7:55 PM 55.4 °F 55.4 °F 100% 30.11 in 0.5 mi SSE 3.5 mph - 0.02 in Rain Rain
8:15 PM 55.4 °F 55.4 °F 100% 30.12 in 0.2 mi South 4.6 mph - N/A   Drizzle
8:55 PM 55.6 °F 55.6 °F 100% 30.11 in 0.2 mi SSE 3.5 mph - N/A   Heavy Drizzle
9:15 PM 55.6 °F 55.6 °F 100% 30.10 in 0.2 mi SSE 4.6 mph - 0.01 in Rain Rain
9:35 PM 55.9 °F 55.9 °F 100% 30.11 in 0.2 mi SSE 4.6 mph - 0.01 in   Drizzle
9:55 PM 56.3 °F 56.3 °F 100% 30.10 in 0.5 mi SSE 4.6 mph - 0.01 in   Light Drizzle
10:15 PM 56.3 °F 56.3 °F 100% 30.09 in 0.2 mi SSE 4.6 mph - N/A Rain Light Rain
10:55 PM 57.2 °F 57.2 °F 100% 30.08 in 1.0 mi SSE 4.6 mph - 0.01 in   Drizzle
11:15 PM 57.6 °F 57.6 °F 100% 30.07 in 1.0 mi SE 4.6 mph - N/A Rain Light Rain
11:35 PM 58.1 °F 58.1 °F 100% 30.07 in 0.5 mi South 5.8 mph - N/A Fog Fog
11:55 PM 58.8 °F 58.8 °F 100% 30.07 in 5.0 mi SSE 5.8 mph - N/A   Overcast